Content
SEND FEEDBACK

Daily
Averages
Monthly
Summary
United States of America

ROCK HILL, NEW YORK


Home > North America > United States > New York
Elevation: 1260 feet     Latitude: 41 35N     Longitude: 074 37W

WEATHER
 
SELECT A DAY
Number of Records: 450,498;   Date Range: 1/1/95 - 10/20/14
 
SHARE

PRINT THIS DATA

[ ← Previous Day ]
WEATHER ALMANAC - FEBRUARY 2, 2014
[ Next Day → ]
[ °C ]   °F
Weather ElementAverageHighLow
Temperature33.7 °F39.2 °F (10:15 am)28.4 °F (3:15 am)
Dewpoint26.5 °F30.2 °F (12:35 pm)21.2 °F (2:15 am)
Humidity75.5 %86 % (3:55 am)61 % (10:15 am)
Barometer29.96 in30.09 in (11:55 pm)29.88 in (5:55 am)
Wind Speed5.1 mph11.5 mph (4:15 pm)
Wind Gust17.3 mph (4:15 pm)
Weather ElementAverage
Visibility9.4 mi
Wind DirectionWSW (231.5 °)

Weather ElementTotal
Precipitation---
Heating Degree Days31.2 (Base 65)
Averaged from 71 records on February 2, 2014
WEATHER CONDITIONS BREAKOUT
WIND DIRECTION BREAKOUT
WEATHER BY HOUR - FEBRUARY 2, 2014
[ °C ]   °F
Local TimeTemperatureDewpointHumidityBarometerVisibilityWind DirectionWind SpeedGust SpeedPrecipitationEventsConditions
12:35 AM33.8 °F24.8 °F70 %29.98 in10.0 miCalmOvercast
12:55 AM33.8 °F26.6 °F75 %29.97 in10.0 miCalmMostly Cloudy
1:15 AM33.8 °F26.6 °F75 %29.95 in10.0 miCalmPartly Cloudy
1:35 AM32.0 °F26.6 °F80 %29.94 in10.0 miCalmClear
1:55 AM32.0 °F26.6 °F80 %29.93 in10.0 miCalmClear
2:15 AM30.2 °F21.2 °F69 %29.93 in10.0 miCalmClear
2:35 AM30.2 °F24.8 °F80 %29.92 in10.0 miCalmClear
2:55 AM30.2 °F24.8 °F80 %29.91 in10.0 miCalmClear
3:15 AM28.4 °F21.2 °F74 %29.92 in10.0 miCalmClear
3:35 AM30.2 °F24.8 °F80 %29.91 in10.0 miCalmClear
3:55 AM28.4 °F24.8 °F86 %29.90 in9.0 miCalmClear
4:15 AM28.4 °F23.0 °F80 %29.90 in9.0 miNorth (350°)4.6 mphClear
4:35 AM28.4 °F24.8 °F86 %29.90 in10.0 miCalmClear
4:55 AM28.4 °F24.8 °F86 %29.90 in7.0 miWNW (300°)4.6 mphClear
5:15 AM30.2 °F24.8 °F80 %29.90 in10.0 miWNW (300°)3.5 mphClear
5:35 AM30.2 °F24.8 °F80 %29.89 in10.0 miNW (310°)3.5 mphClear
5:55 AM28.4 °F23.0 °F80 %29.88 in9.0 miCalmClear
6:15 AM30.2 °F24.8 °F80 %29.89 in10.0 miWest (280°)4.6 mphClear
6:35 AM30.2 °F24.8 °F80 %29.89 in10.0 miNW (310°)3.5 mphPartly Cloudy
6:55 AM30.2 °F24.8 °F80 %29.89 in10.0 miWest (260°)4.6 mphPartly Cloudy
7:15 AM30.2 °F24.8 °F80 %29.90 in10.0 miWest (270°)3.5 mphMostly Cloudy
7:35 AM32.0 °F26.6 °F80 %29.90 in10.0 miWest (270°)3.5 mphOvercast
7:55 AM32.0 °F26.6 °F80 %29.90 in10.0 miCalmOvercast
8:15 AM33.8 °F26.6 °F75 %29.91 in10.0 miWSW (250°)4.6 mphOvercast
8:35 AM33.8 °F26.6 °F75 %29.90 in10.0 miCalmOvercast
8:55 AM33.8 °F26.6 °F75 %29.91 in10.0 miWest (260°)4.6 mphOvercast
9:15 AM35.6 °F26.6 °F70 %29.91 in10.0 miWest (280°)4.6 mphOvercast
9:35 AM35.6 °F26.6 °F70 %29.92 in10.0 miWest (270°)4.6 mphOvercast
9:55 AM37.4 °F26.6 °F65 %29.92 in10.0 miWest (280°)8.1 mphOvercast
10:15 AM39.2 °F26.6 °F61 %29.94 in10.0 miWNW (290°)6.9 mphOvercast
10:35 AM39.2 °F26.6 °F61 %29.95 in10.0 miWest (280°)6.9 mphOvercast
10:55 AM39.2 °F26.6 °F61 %29.95 in10.0 miWNW (300°)5.8 mphOvercast
11:15 AM39.2 °F26.6 °F61 %29.95 in10.0 miWest (280°)6.9 mphOvercast
11:35 AM37.4 °F26.6 °F65 %29.95 in10.0 miWNW (290°)8.1 mphOvercast
11:55 AM37.4 °F28.4 °F70 %29.94 in8.0 miWNW (290°)6.9 mphOvercast
12:15 PM35.6 °F28.4 °F75 %29.94 in5.0 miWest (280°)6.9 mphOvercast
12:35 PM35.6 °F30.2 °F81 %29.94 in7.0 miWNW (290°)8.1 mphMostly Cloudy
12:55 PM35.6 °F30.2 °F81 %29.93 in7.0 miWest (280°)5.8 mphMostly Cloudy
1:15 PM35.6 °F30.2 °F81 %29.92 in5.0 miCalmScattered Clouds
1:35 PM35.6 °F30.2 °F81 %29.91 in5.0 miWest (270°)3.5 mphMostly Cloudy
1:55 PM35.6 °F30.2 °F81 %29.92 in5.0 miWest (270°)4.6 mphOvercast
2:15 PM35.6 °F30.2 °F81 %29.91 in7.0 miWNW (290°)6.9 mphOvercast
2:35 PM35.6 °F30.2 °F81 %29.93 in7.0 miWest (280°)8.1 mphOvercast
2:55 PM35.6 °F30.2 °F81 %29.92 in7.0 miWNW (300°)5.8 mphOvercast
3:15 PM35.6 °F30.2 °F81 %29.93 in8.0 miWNW (290°)5.8 mphOvercast
3:35 PM35.6 °F30.2 °F81 %29.95 in10.0 miWNW (290°)8.1 mphOvercast
3:55 PM35.6 °F30.2 °F81 %29.95 in10.0 miNW (310°)9.2 mphOvercast
4:15 PM35.6 °F30.2 °F81 %29.95 in10.0 miNW (310°)11.5 mph17.3 mphOvercast
4:35 PM35.6 °F30.2 °F81 %29.97 in10.0 miNW (310°)6.9 mphOvercast
4:55 PM35.6 °F30.2 °F81 %29.97 in10.0 miNW (320°)5.8 mphOvercast
5:15 PM35.6 °F28.4 °F75 %29.96 in10.0 miNNW (330°)8.1 mphOvercast
5:35 PM35.6 °F28.4 °F75 %29.98 in10.0 miNW (310°)6.9 mphOvercast
5:55 PM35.6 °F28.4 °F75 %29.98 in10.0 miWNW (290°)4.6 mphOvercast
6:15 PM35.6 °F28.4 °F75 %29.99 in10.0 miWNW (290°)5.8 mphOvercast
6:35 PM35.6 °F28.4 °F75 %30.01 in10.0 miWNW (300°)5.8 mphOvercast
6:55 PM35.6 °F26.6 °F70 %30.03 in10.0 miNW (310°)6.9 mphOvercast
7:15 PM35.6 °F26.6 °F70 %30.04 in10.0 miNW (310°)6.9 mphOvercast
7:35 PM35.6 °F26.6 °F70 %30.03 in10.0 miNNW (330°)6.9 mphOvercast
7:55 PM33.8 °F26.6 °F75 %30.04 in10.0 miNW (310°)5.8 mphOvercast
8:15 PM33.8 °F26.6 °F75 %30.05 in10.0 miNW (310°)6.9 mphMostly Cloudy
8:35 PM33.8 °F24.8 °F70 %30.05 in10.0 miNW (320°)9.2 mphOvercast
8:55 PM33.8 °F24.8 °F70 %30.05 in10.0 miNW (320°)9.2 mphMostly Cloudy
9:15 PM33.8 °F24.8 °F70 %30.06 in10.0 miNNW (330°)11.5 mph16.1 mphMostly Cloudy
9:35 PM33.8 °F24.8 °F70 %30.06 in10.0 miNNW (330°)11.5 mph17.3 mphOvercast
9:55 PM33.8 °F24.8 °F70 %30.06 in10.0 miNNW (340°)9.2 mphOvercast
10:15 PM33.8 °F24.8 °F70 %30.07 in10.0 miNNW (330°)9.2 mphOvercast
10:35 PM32.0 °F24.8 °F75 %30.07 in10.0 miNW (310°)8.1 mphOvercast
10:55 PM32.0 °F24.8 °F75 %30.08 in10.0 miWNW (300°)3.5 mphOvercast
11:15 PM32.0 °F24.8 °F75 %30.08 in10.0 miNNW (330°)9.2 mphOvercast
11:35 PM32.0 °F23.0 °F69 %30.08 in10.0 miNW (320°)10.4 mphScattered Clouds
11:55 PM30.2 °F21.2 °F69 %30.09 in10.0 miNW (310°)8.1 mphMostly Cloudy
Hourly data recorded from KMSV, located miles away from Rock Hill, New York







STORIES FROM OUR PARTNERS